星链-31737 (STARLINK-31737 )

导读

STARLINK-31737是美国太空探索技术公司SpaceX星链互联网卫星星座的一员,于北京时间2024年4月18日8点发射升空。作为星链低轨卫星组网的组成部分,它将加入近地轨道星座网络,为全球提供低延迟、高速率的卫星互联网服务,持续推进星链星座的部署与覆盖能力拓展。

基本信息
目录编号:
59537
目录名称:
STARLINK-31737
国际标识:
2024-074D
轨道中心:
EARTH
卫星名称:
星链-31737
卫星全名:
星链-31737 (STARLINK-31737 )
卫星状态:
在轨 (已飞行876 天)
发射日期:
2024-04-18 UTC
国别 :
美国 (US)
星等 :
--
该卫星已列入 空间交会检测服务 Space Conjunction Data Service (SCDS) ,当前飞行风险评估等级: 无高风险
轨道信息
数据来源 国际轨道数据
星历时间: 2026-09-11T15:28:58+0800
11小时前
查看轨道信息
半长轴: 6861.562km
偏心率: 0.0001224
轨道倾角: 43.010°
近地点辐角 242.809°
升交点赤经 15.158°
平近点角 117.264°
近地点: 482.585km
远地点: 484.265km
周期: 94.274分钟
每日圈数: 15.274546
详细信息
固有亮度:
5
最大亮度:
1.5
卫星平台:
Starlink v2.0 mini
覆盖范围:
全球
运营商:
太空探索技术公司
运营商所在国:
美国
制造商(研发单位):
太空探索技术公司
制造商所在国:
美国
使用方式:
暂无
卫星简介
星链(Starlink)计划是由太空探索技术公司(SpaceX)提出的一个巨型低轨卫星互联网星座项目,计划在2019年至2024年间在太空搭建由约1.2万颗卫星组成的“星链”网络,其中1584颗将部署在地球上空550千米处的近地轨道,并从2020年开始工作。该卫星仍在工作。
2D轨道图
3D轨道图
轨道高度分析图
轨道倾角分析图
轨道综合分析图
查看轨道综合分析图
交会数据列表
事件ID 空间交会对象 最接近时刻(TCA) 交会距离 交会风险概率(CRP) 交会风险指数(CRI) 操作
CDM_260912-171805-953706-793821
2026-09-12T
17:18:16+0000
0.400 km
远距离
2.649306E-4 高风险 0.83
CDM_260911-214305-953706-746922
2026-09-11T
21:43:41+0000
0.937 km
远距离
2.52459E-5 中风险 0.63
CDM_260912-075505-953706-746921
2026-09-12T
07:55:43+0000
0.943 km
远距离
2.469919E-5 中风险 0.63
CDM_260913-081205-641005-953721
2026-09-13T
08:12:08+0000
0.957 km
远距离
2.428057E-5 中风险 0.63
CDM_260912-150005-953706-632421
2026-09-12T
15:00:32+0000
1.237 km
极远距离
9.47506E-6 低风险 0.55
CDM_260913-213205-641005-953721
2026-09-13T
21:32:30+0000
1.302 km
极远距离
8.343847E-6 低风险 0.53
CDM_260914-040605-953706-086121
2026-09-14T
04:06:47+0000
1.450 km
极远距离
6.215242E-6 低风险 0.51
CDM_260906-012005-953706-976321
2026-09-06T
01:20:59+0000
1.451 km
极远距离
5.591657E-6 低风险 0.5
CDM_260913-230605-641005-953721
2026-09-13T
23:06:40+0000
1.733 km
极远距离
3.337225E-6 低风险 0.45
CDM_260912-053205-953706-793821
2026-09-12T
05:32:05+0000
1.813 km
极远距离
2.921607E-6 低风险 0.44
与全量物体交会距离演化趋势
与全量物体交会风险概率演化趋势